Location: Bethel Church
(38.0159°N, 88.7292°W)
Time: 08:23:59
(UTC+00:00)

Cosmos 1939 Rocket - Pass Details

Date: 08 December 2021
Orbit: 531 x 583 km, 97.4° (Epoch: 16 January)

Event Time Altitude Azimuth Distance (km) Brightness Sun altitude
Rises 23:12:28 0° 165° (SSE) 2,785 6.5 -7.4°
Reaches altitude 10° 23:14:37 10° 164° (SSE) 1,886 5.6 -7.8°
Maximum altitude 23:18:42 82° 79° (ENE) 585 2.9 -8.6°
Drops below altitude 10° 23:22:47 10° 350° (N) 1,876 5.4 -9.3°
Sets 23:24:55 0° 350° (N) 2,769 6.3 -9.7°
